RH
72 65 66 60 49 36 40 69 83 69 85 98 97 95 91 91 78 37 46 53 52 46 52 55 52 48 50 69 69 70 74 86 83 90 99 98 85 56 49 62 67 87 55 49 46 55 48
86 83 64 63 61 40 36 56 78 78 91 98 99 91 92 95 86 43 30 48 44 46 47 63 76 52 65 50 52 60 65 86 92 90 98 94 74 59 46 52 63 64 75 51 54 56 54
97 93 72 62 64 48 35 40 68 78 99 98 98 100 84 84 91 60 45 45 48 55 56 78 87 76 78 51 61 64 62 71 98 85 92 97 79 65 58 56 65 56 63 85 61 56 56
94 88 96 66 68 57 38 39 54 75 99 98 99 99 100 78 91 84 45 47 46 58 59 63 65 73 62 52 66 72 68 60 87 93 93 95 96 76 59 64 60 62 57 74 60 58 60
98 95 99 86 67 64 42 40 48 59 88 97 99 99 100 84 74 64 45 45 46 58 69 71 74 82 73 76 94 90 80 76 72 87 90 84 91 71 71 57 58 57 49 50 70 56 59
90 99 100 90 67 66 42 42 48 50 81 98 98 98 100 90 68 51 44 47 45 54 67 78 70 85 78 99 95 94 90 74 83 86 98 92 90 68 53 52 56 50 43 45 52 62 56
94 99 99 91 70 67 44 42 48 51 61 92 98 97 98 81 72 49 48 50 52 64 72 76 77 82 78 97 98 94 97 85 83 88 87 94 93 70 50 43 32 36 46 49 44 53 59
93 100 99 88 74 70 47 43 48 52 60 86 83 85 88 72 81 48 50 58 60 67 68 75 76 76 84 99 99 99 90 74 84 96 84 95 86 48 50 49 47 46 51 49 50 56 60
97 98 100 88 80 73 50 44 49 53 47 70 60 76 74 70 84 49 52 54 60 58 75 73 83 87 91 91 92 99 93 72 75 91 94 97 71 56 55 52 52 46 47 52 46 64 55
100 99 99 88 81 75 52 47 51 53 41 43 39 40 60 87 80 56 56 55 55 63 86 66 72 91 86 82 94 90 86 86 72 85 94 85 57 61 54 55 42 63 48 50 55 51 50
98 100 100 89 75 76 53 49 53 51 40 42 32 36 48 94 73 63 65 58 55 78 77 66 75 74 80 76 85 93 76 76 73 85 92 95 66 63 65 53 43 55 49 48 51 42 50
100 100 100 93 76 72 54 49 55 49 39 37 32 39 60 82 77 73 68 60 78 88 84 86 70 70 79 73 76 89 86 79 92 74 85 79 73 62 56 55 46 48 47 48 50 48 64
100 100 100 98 80 68 55 49 55 46 38 33 33 59 75 86 89 80 85 75 94 83 64 92 69 61 71 78 78 76 76 82 89 100 100 91 83 74 69 58 50 46 46 68 68 79 56
99 100 100 95 82 65 56 51 54 43 38 32 40 75 85 87 88 89 86 74 83 73 72 68 64 66 83 87 84 91 85 82 76 89 98 97 98 77 81 56 54 49 42 53 64 61 47
98 99 100 98 79 63 53 53 52 41 38 32 48 85 94 88 83 90 86 88 86 82 61 65 70 67 71 76 90 93 96 81 66 60 73 82 93 79 80 70 59 58 64 43 56 55 56
98 100 100 99 76 62 52 54 47 40 37 34 59 93 96 90 85 96 84 84 81 60 68 62 68 63 59 67 85 96 96 73 71 59 54 63 97 84 82 69 65 60 45 66 72 80 60
100 100 100 98 73 62 52 54 42 38 33 45 74 98 99 95 96 98 96 94 69 65 68 62 60 62 63 62 72 77 96 83 67 64 52 51 61 97 74 79 62 64 67 61 52 56 58
100 100 100 93 71 62 53 51 40 37 31 58 86 95 95 95 96 92 86 75 67 63 71 56 52 53 62 65 67 70 83 74 69 56 56 56 61 87 89 71 67 51 53 52 60 68 60
100 100 100 90 68 61 54 45 36 34 30 69 98 97 92 94 84 84 75 70 69 61 57 54 53 51 49 63 68 64 67 64 76 63 57 54 66 88 92 72 61 66 60 54 56 68 83
100 100 99 87 67 57 53 39 33 32 26 58 91 93 99 98 88 82 79 66 63 66 57 50 49 49 49 54 54 66 64 68 74 66 63 55 61 64 60 58 52 69 59 53 59 88 63
99 100 98 90 66 54 49 35 32 31 25 62 77 79 82 92 83 76 77 70 62 65 58 54 51 50 51 61 58 63 63 66 66 76 68 59 84 79 56 61 70 72 62 56 72 67 76
97 100 99 82 62 53 43 32 31 32 26 59 64 77 89 83 85 78 73 68 66 66 59 59 52 51 49 52 51 59 60 60 64 65 75 65 87 71 76 64 65 73 63 61 57 56 59
99 100 99 78 57 51 38 31 31 34 26 26 36 51 70 81 72 72 63 67 71 69 69 66 57 56 57 58 62 53 54 52 51 62 70 79 78 79 79 65 62 64 52 57 59 57 57
100 100 97 81 57 47 35 32 34 34 34 29 28 36 63 60 63 67 55 52 66 68 71 71 76 60 83 71 58 57 56 57 55 60 55 67 70 72 79 72 74 46 39 46 48 45 47
100 100 95 70 54 42 34 34 36 35 35 35 30 24 44 57 55 53 55 64 71 74 74 87 94 86 82 67 55 58 60 58 60 58 56 54 60 76 76 68 48 44 58 53 51 52 46
100 100 82 64 51 39 34 35 36 36 36 37 38 38 28 46 52 62 56 66 60 65 70 75 82 84 77 64 66 73 66 57 67 71 60 52 49 55 68 72 60 46 46 55 51 57 48
100 97 79 64 47 38 35 37 37 38 38 40 40 42 46 66 86 72 51 52 69 59 62 75 66 90 84 70 94 72 61 55 62 68 82 84 78 76 64 63 50 39 40 54 66 65 54
100 95 77 61 44 40 38 39 40 41 40 41 44 45 47 85 94 77 72 75 72 66 61 67 87 96 98 86 69 66 60 54 56 52 62 64 73 75 72 77 72 47 58 63 55 54 62
100 88 77 58 45 43 41 41 42 40 41 45 48 52 54 66 92 73 72 71 71 72 75 75 95 99 98 100 81 67 63 59 56 58 58 59 51 55 56 50 45 52 51 56 66 67 65
Wind_Speed
18 19 21 24 24 23 23 19 18 18 17 17 17 13 12 15 16 12 9 9 10 10 9 9 10 10 6 3 3 4 6 2 13 17 12 13 22 18 16 14 22 17 17 14 16 13 9
18 20 19 24 23 23 22 20 19 19 17 16 17 18 11 11 14 11 9 8 9 9 9 10 11 9 4 4 4 4 2 2 10 26 7 14 14 10 15 16 18 23 5 15 12 15 7
18 19 19 19 22 21 22 23 20 18 17 17 19 18 18 11 10 10 9 7 8 9 11 10 10 9 7 5 4 3 4 6 12 23 9 13 17 6 11 13 8 16 15 6 14 21 11
19 22 22 22 22 20 21 22 21 19 17 18 18 20 20 13 10 9 7 7 7 6 7 7 5 6 5 5 8 9 7 6 11 11 19 10 14 6 10 10 9 11 13 14 14 18 11
23 22 22 22 21 21 20 22 21 21 19 18 18 19 19 19 9 9 7 7 5 4 6 7 7 6 5 8 8 9 7 8 12 9 6 8 8 6 6 15 10 11 13 17 9 16 8
24 26 21 21 20 21 19 22 21 21 21 19 18 18 19 18 10 6 4 5 2 4 6 5 5 6 5 7 10 7 7 14 14 12 9 9 6 8 11 13 15 19 14 16 13 13 13
24 26 20 20 20 21 19 20 23 23 23 19 18 18 17 16 8 5 3 2 2 2 2 3 5 6 12 12 4 11 9 16 14 11 5 6 5 15 19 16 4 13 10 13 11 8 13
23 25 22 21 19 20 19 19 21 24 24 20 19 18 15 14 7 4 2 1 1 2 3 3 5 9 10 14 8 12 19 12 16 5 13 3 7 12 12 10 11 16 15 11 6 9 13
21 23 23 21 19 19 19 20 21 23 24 21 20 18 14 9 5 3 3 2 2 4 3 2 4 5 6 12 9 13 9 18 16 9 8 2 10 12 14 11 11 11 14 13 9 9 6
23 24 22 20 20 19 19 19 21 23 23 22 19 17 12 5 2 4 3 4 1 4 2 4 2 4 6 5 8 11 12 6 4 11 4 3 13 12 13 9 12 10 8 10 10 9 6
27 23 22 19 19 19 18 18 20 22 22 20 18 14 8 3 2 4 3 3 1 2 1 5 3 4 5 5 9 7 9 8 6 10 2 3 15 14 17 10 5 4 9 10 6 7 3
24 27 23 18 18 18 18 18 20 21 20 18 15 9 1 1 4 4 4 2 1 2 3 2 2 2 1 6 4 4 6 7 5 5 5 4 2 3 5 4 2 11 12 10 5 3 5
25 25 25 19 17 17 17 17 18 19 18 16 10 2 5 4 3 5 3 2 1 2 1 0 0 2 3 4 4 2 4 6 4 4 3 10 7 2 2 10 9 8 15 4 4 4 4
26 26 24 19 17 16 15 17 17 17 15 12 4 4 6 6 7 6 3 1 2 0 2 2 1 4 2 3 3 3 7 6 3 6 4 3 7 6 2 3 8 13 10 3 6 4 3
29 26 25 20 18 15 14 16 16 14 12 8 3 6 6 9 5 3 1 1 2 3 3 5 2 2 4 4 3 3 1 6 6 9 1 5 3 2 3 1 2 6 5 3 3 2 1
28 27 27 22 19 15 12 14 15 12 9 5 7 6 5 9 4 1 1 1 2 2 1 3 1 1 3 5 2 3 5 5 5 4 4 4 5 2 2 1 7 2 7 4 1 3 4
28 31 31 22 18 15 11 12 12 10 6 3 9 3 5 9 3 1 1 1 2 4 3 2 0 2 2 3 3 3 3 3 2 3 2 5 3 3 5 4 9 5 4 2 3 2 2
31 34 28 21 17 15 11 11 9 7 2 8 6 2 7 9 2 1 2 3 2 3 4 2 1 1 3 4 4 3 3 2 4 4 5 1 4 5 2 1 3 9 11 12 8 5 2
37 26 29 21 17 15 10 9 7 6 5 11 6 4 6 8 2 2 2 3 3 4 3 2 1 0 1 3 2 2 4 2 8 2 2 4 4 4 2 2 2 5 9 9 4 2 7
35 34 28 21 18 14 10 8 6 5 8 15 6 3 4 6 3 2 2 2 3 1 2 2 1 1 1 2 2 4 4 2 6 4 6 3 3 3 5 2 5 9 15 15 13 5 11
39 35 27 22 19 14 10 8 7 6 10 14 7 3 5 4 6 5 2 1 3 3 1 2 2 3 2 3 2 3 4 5 2 5 3 1 2 2 2 3 2 4 13 18 18 19 12
35 38 29 22 21 14 10 9 8 7 12 12 6 5 5 4 3 6 4 4 4 3 1 2 2 3 3 2 2 5 5 4 5 4 2 2 2 2 1 1 4 6 10 12 18 19 21
32 38 30 24 18 14 13 11 9 9 13 7 9 9 6 4 4 4 4 3 4 1 3 4 4 2 2 2 4 4 2 4 6 8 5 6 5 4 3 1 4 7 12 14 9 10 14
34 36 31 24 21 17 14 12 10 9 10 10 10 11 5 4 5 3 3 2 4 2 2 3 3 1 2 2 6 8 8 8 6 5 5 7 6 3 3 4 5 3 1 2 8 9 11
35 37 31 25 22 18 15 13 12 10 10 10 12 8 6 4 3 4 4 3 2 2 2 2 3 4 1 4 2 4 3 3 3 2 3 2 4 3 3 3 6 3 3 2 1 2 1
38 38 31 28 23 19 17 14 13 11 10 9 11 11 6 9 3 5 3 2 3 2 3 2 1 3 2 2 1 3 4 3 5 5 2 4 3 2 2 2 3 2 3 3 3 3 3
43 37 33 28 23 21 17 15 12 11 10 10 11 12 7 8 3 4 2 2 2 2 2 2 4 3 3 4 3 3 3 1 4 4 6 4 2 7 6 4 4 3 4 4 4 3 8
44 38 34 29 26 22 18 14 13 11 10 8 11 12 9 8 8 8 6 3 3 3 1 2 2 1 2 4 3 3 3 3 2 0 2 6 5 3 4 5 6 6 5 2 3 6 8
43 38 34 29 26 22 18 16 13 10 8 10 13 14 17 11 13 18 15 11 8 5 4 3 3 3 2 0 0 1 2 2 1 3 0 4 2 1 5 2 4 3 2 2 2 8 10
Wind_Direction
335 336 344 343 341 339 342 344 340 342 345 344 341 329 318 325 335 334 313 319 321 320 314 326 335 345 352 304 255 285 353 345 209 187 173 182 177 177 192 191 185 235 189 199 191 177 197
331 332 344 340 340 334 337 338 337 339 342 343 335 335 320 318 325 333 329 319 323 329 313 305 310 323 325 264 234 265 312 9 188 194 161 176 173 178 179 183 191 187 147 184 187 181 182
322 324 323 333 335 335 332 334 335 335 336 334 333 332 330 304 307 322 327 331 323 328 323 303 293 307 287 262 224 276 267 175 162 216 220 151 156 181 158 161 155 171 169 201 172 166 155
318 315 324 324 332 334 329 331 331 334 329 329 327 328 324 318 290 303 315 317 313 324 335 349 337 315 263 264 272 286 262 205 190 199 210 193 161 178 170 146 143 157 176 190 187 185 166
302 305 315 317 324 330 328 329 332 331 329 325 324 322 320 320 298 285 316 319 308 301 311 314 317 315 255 281 284 286 239 179 187 210 190 185 160 152 141 158 162 184 195 200 165 191 169
301 297 307 314 319 325 325 327 330 329 324 322 320 320 317 319 306 278 310 320 282 297 309 306 309 294 239 302 274 264 197 184 176 174 150 174 187 160 174 176 181 187 203 195 193 196 211
290 293 305 314 314 320 321 323 327 331 326 321 321 319 315 314 308 273 297 342 342 291 282 284 296 272 302 294 323 182 187 163 155 167 152 162 198 178 175 191 235 178 161 183 202 179 207
282 288 296 310 313 316 316 320 325 328 327 323 322 321 320 317 314 257 273 128 141 274 288 260 313 319 331 347 49 133 149 147 152 162 102 92 184 156 155 159 166 161 166 173 136 183 206
279 287 287 305 312 311 311 316 324 329 324 323 330 322 320 321 312 225 236 208 208 327 266 239 304 325 353 31 53 62 163 140 153 103 85 50 168 153 163 154 161 170 182 168 159 157 188
280 286 284 303 311 307 307 313 323 327 326 328 332 323 319 313 302 200 231 225 239 337 295 34 32 10 19 63 41 66 74 86 92 131 112 149 153 155 144 139 167 170 214 177 151 176 210
279 279 279 296 308 303 304 310 321 326 328 329 333 320 314 194 175 165 198 189 262 41 140 2 36 1 41 57 143 64 101 61 118 144 159 184 165 164 169 155 154 116 165 166 173 207 245
264 266 275 288 302 299 302 309 320 327 329 333 335 318 263 155 171 179 176 170 63 235 78 12 325 100 94 75 51 117 119 91 63 99 257 124 115 147 147 127 155 141 125 102 106 206 246
257 267 271 282 294 295 299 307 320 326 330 335 337 342 119 100 136 149 142 110 250 25 206 106 64 94 53 80 83 39 139 125 107 162 161 135 139 87 81 125 142 186 158 134 187 208 243
252 256 262 277 285 290 295 305 317 324 328 335 328 140 123 107 113 109 98 216 65 70 128 177 131 138 89 138 46 75 135 154 149 222 114 144 155 156 34 175 176 176 195 180 195 199 196
250 257 259 267 278 281 288 302 314 324 326 329 197 155 134 127 110 125 255 110 145 227 128 137 168 198 119 98 110 121 309 161 183 184 159 130 103 88 43 91 197 170 205 30 92 68 239
248 249 251 261 268 271 281 298 310 320 323 311 175 161 163 141 159 142 277 80 159 219 242 172 178 261 123 121 129 153 177 154 177 223 260 119 114 293 143 112 58 281 142 184 260 203 225
246 242 239 251 256 263 274 294 305 312 316 192 171 158 168 165 166 210 314 238 236 221 232 235 76 119 89 132 131 150 163 154 228 145 152 141 130 124 175 215 200 175 197 205 269 267 270
238 246 230 241 247 256 268 288 295 293 279 176 170 168 170 160 223 234 246 209 219 173 211 244 236 67 155 170 133 138 145 116 178 164 160 89 104 145 161 62 315 242 224 217 229 199 241
248 234 225 232 241 249 260 277 274 267 210 173 164 127 171 175 203 207 250 247 228 180 191 210 217 307 121 181 139 111 138 151 159 110 164 170 125 115 85 320 281 222 212 228 217 19 206
249 225 221 225 236 239 248 256 243 248 197 182 164 143 155 201 235 237 246 180 161 181 159 182 154 123 159 125 348 142 129 108 156 153 139 143 162 234 190 97 176 206 212 214 219 231 242
242 218 220 219 231 230 237 235 221 218 188 179 184 165 160 176 205 205 245 310 157 157 187 181 135 228 209 161 132 144 125 122 101 134 105 143 138 99 92 78 169 228 218 218 216 226 239
238 211 209 213 219 217 222 216 207 197 183 190 169 165 142 146 138 186 208 181 171 138 225 157 130 175 199 216 264 202 153 181 175 165 104 5 110 113 118 77 245 248 228 225 230 238 245
222 212 206 206 210 212 213 205 195 190 186 193 193 169 148 150 175 191 185 136 100 236 70 52 97 181 153 68 325 329 237 164 166 168 151 152 145 171 195 273 269 259 245 222 222 239 245
211 217 204 199 202 202 203 197 187 181 194 206 194 163 160 149 207 184 162 122 119 67 139 45 28 173 53 171 87 98 83 100 116 79 142 157 158 164 173 213 226 90 235 247 235 265 247
208 210 196 194 196 197 196 190 183 178 184 190 184 175 150 126 142 132 138 114 109 92 122 87 0 4 348 165 195 152 130 154 111 72 151 192 173 147 221 212 313 120 141 164 239 59 149
208 197 186 190 191 192 190 184 176 175 178 174 176 176 144 132 162 115 131 92 141 132 151 101 355 12 58 27 91 204 191 155 165 142 129 165 202 217 163 232 247 113 133 159 189 185 22
199 192 183 185 188 187 185 179 173 170 173 170 162 165 137 106 108 119 118 135 109 103 100 61 1 36 14 179 154 201 204 316 193 194 165 161 175 204 200 242 275 245 212 167 221 68 341
192 186 178 181 185 181 180 173 166 162 166 164 154 160 146 101 98 109 108 110 113 78 128 24 145 36 3 218 207 172 209 177 213 339 186 188 183 198 208 220 257 149 123 241 32 332 323
184 178 176 180 180 176 172 168 164 163 166 157 145 145 132 104 118 106 94 86 89 102 111 50 98 30 43 317 104 108 149 198 206 198 216 206 252 208 231 225 66 124 58 342 27 329 328